sat.trackr.live / text

‹ back to catalog

ONEWEB-0191

NORAD 48239 · 2021-031AF

PAYLOAD ACTIVE UNKNOWN

§ Identity

Operator
Country
UK
Launch date
2021-04-25
Launch site
VOSTO
Launch vehicle
Mass (kg)
RCS (m²)

Purposes: comms

External: N2YO · Heavens-Above · Gunter

§ Orbital elements

Epoch: 2026-09-18T07:49:05.682144Z

Period
109.55 min
Inclination
87.8898°
Eccentricity
0.0001962
Mean motion
13.14504182 rev/d
Perigee alt
1,204.3 km
Apogee alt
1,207.3 km
Semi-major
7,583.9 km
B*
6.3863e-4
RAAN
271.1272°
Arg perigee
93.4765°
Mean anomaly
266.6589°
Rev number
26,040

§ Raw data

ONEWEB-01911 48239U 21031AF  26261.32576021  .00000250  00000+0  63863-3 0  99912 48239  87.8898 271.1272 0001962  93.4765 266.6589 13.14504182260403

JSON: /api/v1/satellites/48239 · /tle

For live sub-satellite position, see the globe view (requires WebGL).

§ Visibility from observer

Set your observer location to see the next 7 days of passes ≥ 10°. The values pass through the URL so the page stays shareable.

No JS? Fill the form by hand. The geolocation button needs JavaScript.